Location: Bocchiglicro
(39.4167°N, 16.7500°E)
Time: 13:19:26
(UTC+00:00)

Meteor 1-28 Rocket - Pass Details

Date: 07 June 2020
Orbit: 504 x 523 km, 97.3° (Epoch: 13 July)

Event Time Altitude Azimuth Distance (km) Brightness Sun altitude
Exits shadow 02:40:34 - 207° (SSW) 1,872 5.5 -8.1°
Reaches altitude 10° 02:40:58 10° 211° (SSW) 1,738 5.3 -8.0°
Maximum altitude 02:43:59 23° 265° (W) 1,125 4.4 -7.5°
Drops below altitude 10° 02:47:02 10° 319° (NW) 1,740 5.8 -7.1°
Sets 02:49:27 0° 334° (NNW) 2,628 6.9 -6.7°
